�N����,����,�~����,�C��,���x,�C��,����,���ϕ���,�ő�u�ԕ���,�ő厞����,���˗�,�I�_���x,�n�����x,�ő啗���N��,DTYPE
"20/08/30","00:10",0.0,26.0,91.5,1005.2,331.6,1.2,1.9,346.6,0.00,24.5,28.5,"00:09:04",1
"20/08/30","00:20",0.0,25.9,91.5,1005.2,332.9,1.3,2.2,347.6,0.00,24.4,28.2,"00:16:40",1
"20/08/30","00:30",0.0,25.9,91.5,1005.7,308.1,1.0,2.1,344.9,0.00,24.4,28.3,"00:22:40",1
"20/08/30","00:40",0.0,25.9,91.5,1005.2,276.2,0.7,1.4,322.7,0.00,24.4,28.2,"00:32:16",1
"20/08/30","00:50",0.0,25.8,91.5,1005.2,297.9,0.7,1.4,326.5,0.00,24.3,28.1,"00:43:28",1
"20/08/30","01:00",0.0,25.7,91.6,1005.0,282.3,0.6,0.9,303.3,0.00,24.3,28.2,"00:55:12",1
"20/08/30","01:10",0.0,25.7,91.6,1005.5,284.4,0.7,1.6,343.7,0.00,24.3,27.9,"01:08:40",1
"20/08/30","01:20",0.0,25.6,91.6,1005.2,292.5,0.6,1.1,341.5,0.00,24.2,27.9,"01:10:40",1
"20/08/30","01:30",0.0,25.6,91.6,1005.0,318.8,0.6,1.2,315.7,0.00,24.2,27.9,"01:24:00",1
"20/08/30","01:40",0.0,25.6,91.7,1004.8,327.5,1.0,1.7,339.6,0.00,24.2,28.1,"01:38:56",1
"20/08/30","01:50",0.0,25.6,91.7,1005.0,309.1,0.7,1.4,336.1,0.00,24.2,28.0,"01:40:40",1
"20/08/30","02:00",0.0,25.6,91.7,1005.0,283.4,0.5,1.3,319.5,0.00,24.2,27.9,"01:59:52",1
"20/08/30","02:10",0.0,25.6,91.7,1005.0,291.1,0.7,1.6,305.6,0.00,24.2,28.1,"02:00:16",1
"20/08/30","02:20",0.0,25.5,91.8,1005.0,278.2,0.6,1.0,240.6,0.00,24.1,27.9,"02:11:44",1
"20/08/30","02:30",0.0,25.5,91.8,1005.0,294.1,0.7,1.0,328.6,0.00,24.1,27.7,"02:29:28",1
"20/08/30","02:40",0.0,25.5,91.9,1005.0,329.2,0.6,1.2,326.1,0.00,24.1,27.7,"02:32:40",1
"20/08/30","02:50",0.0,25.5,91.9,1004.8,262.7,0.6,1.3,256.6,0.00,24.1,27.7,"02:49:28",1
"20/08/30","03:00",0.0,25.5,91.9,1004.8,288.8,0.6,1.0,302.3,0.00,24.1,27.7,"02:50:48",1
"20/08/30","03:10",0.0,25.5,92.0,1004.8,307.6,0.7,1.6,342.4,0.00,24.1,27.7,"03:09:44",1
"20/08/30","03:20",0.0,25.5,92.0,1004.8,313.7,0.6,1.3,334.1,0.00,24.1,27.6,"03:10:24",1
"20/08/30","03:30",0.0,25.5,92.0,1004.8,306.2,0.6,1.2,329.5,0.00,24.1,27.6,"03:29:28",1
"20/08/30","03:40",0.0,25.4,92.1,1005.0,317.0,0.5,1.3,329.1,0.00,24.1,27.6,"03:34:00",1
"20/08/30","03:50",0.0,25.3,92.1,1004.8,331.9,0.6,1.4,346.9,0.00,24.0,27.6,"03:48:24",1
"20/08/30","04:00",0.0,25.3,92.2,1004.8,276.7,0.7,1.4,317.6,0.00,24.0,27.4,"03:51:52",1
"20/08/30","04:10",0.0,25.2,92.2,1005.2,281.4,0.5,1.2,312.9,0.00,23.9,27.5,"04:06:24",1
"20/08/30","04:20",0.0,25.2,92.3,1005.0,288.7,0.5,1.4,328.2,0.00,23.9,27.4,"04:18:24",1
"20/08/30","04:30",0.0,25.2,92.3,1004.8,304.6,0.5,0.9,324.7,0.00,23.9,27.5,"04:21:44",1
"20/08/30","04:40",0.0,25.2,92.4,1004.8,295.9,0.3,0.9,338.8,0.00,23.9,27.2,"04:30:24",1
"20/08/30","04:50",0.0,25.2,92.4,1004.8,316.9,0.7,1.3,345.1,0.00,23.9,27.3,"04:46:56",1
"20/08/30","05:00",0.0,25.2,92.4,1004.5,319.4,0.6,1.3,344.8,0.00,23.9,27.3,"04:50:24",1
"20/08/30","05:10",0.0,25.1,92.5,1004.8,327.5,0.6,1.6,340.0,0.00,23.8,27.3,"05:04:40",1
"20/08/30","05:20",0.0,25.1,92.5,1005.0,338.1,0.8,1.6,345.7,0.00,23.8,27.4,"05:18:32",1
"20/08/30","05:30",0.0,25.1,92.6,1005.0,313.1,0.7,1.7,341.2,0.00,23.9,27.2,"05:22:00",1
"20/08/30","05:40",0.0,25.2,92.7,1004.5,326.9,0.7,1.9,330.3,0.00,24.0,27.3,"05:39:36",1
"20/08/30","05:50",0.0,25.3,92.7,1005.2,325.6,1.3,2.5,356.7,0.00,24.1,27.0,"05:42:40",1
"20/08/30","06:00",0.0,25.5,92.7,1004.8,314.8,1.1,2.4,340.5,0.00,24.3,27.1,"05:59:52",1
"20/08/30","06:10",0.0,25.5,92.7,1005.2,333.9,1.3,2.5,334.8,0.00,24.3,27.1,"06:09:36",1
"20/08/30","06:20",0.0,25.8,92.7,1005.0,324.4,0.8,1.9,339.9,0.01,24.6,27.1,"06:10:56",1
"20/08/30","06:30",0.0,26.2,92.6,1005.2,332.8,0.8,2.0,348.5,0.02,24.9,27.1,"06:22:08",1
"20/08/30","06:40",0.0,26.4,92.3,1005.2,338.2,1.1,1.8,351.6,0.03,25.1,27.0,"06:31:12",1
"20/08/30","06:50",0.0,26.7,92.0,1005.2,334.4,1.1,2.5,344.7,0.04,25.3,27.2,"06:47:20",1
"20/08/30","07:00",0.0,27.1,91.7,1005.2,314.1,1.1,2.7,342.0,0.06,25.7,27.2,"06:54:16",1
"20/08/30","07:10",0.0,27.5,91.0,1004.8,275.5,0.5,1.1,223.7,0.06,25.9,27.3,"07:02:40",1
"20/08/30","07:20",0.0,27.6,90.0,1005.0,254.0,0.7,1.4,238.3,0.08,25.8,27.4,"07:18:48",1
"20/08/30","07:30",0.0,28.1,89.5,1004.8,257.8,0.6,1.7,226.2,0.11,26.2,27.4,"07:29:44",1
"20/08/30","07:40",0.0,28.4,88.6,1004.3,242.2,0.7,1.3,237.9,0.15,26.4,27.5,"07:30:40",1
"20/08/30","07:50",0.0,29.3,86.8,1005.0,150.3,0.2,1.0,27.2,0.17,26.9,27.6,"07:45:20",1
"20/08/30","08:00",0.0,29.9,84.7,1005.2,307.5,0.3,1.1,247.1,0.21,27.1,27.9,"07:59:12",1
"20/08/30","08:10",0.0,30.4,82.3,1006.0,195.5,0.5,1.1,247.6,0.23,27.1,27.9,"08:08:32",1
"20/08/30","08:20",0.0,30.5,78.8,1006.2,116.7,0.5,1.3,145.6,0.24,26.4,28.1,"08:18:08",1
"20/08/30","08:30",0.0,31.4,76.4,1006.4,148.8,0.5,1.3,210.3,0.28,26.8,28.1,"08:25:36",1
"20/08/30","08:40",0.0,31.7,73.1,1006.7,9.4,0.5,1.8,356.3,0.31,26.3,28.3,"08:36:40",1
"20/08/30","08:50",0.0,32.1,71.2,1006.4,347.4,0.6,1.4,352.9,0.33,26.3,28.4,"08:49:52",1
"20/08/30","09:00",0.0,32.0,70.0,1006.9,94.9,0.8,2.0,119.7,0.35,25.9,28.8,"08:57:44",1
"20/08/30","09:10",0.0,32.3,69.1,1006.4,88.9,0.7,1.6,118.7,0.36,25.9,29.1,"09:02:48",1
"20/08/30","09:20",0.0,32.5,69.1,1006.7,359.6,0.7,1.9,20.2,0.37,26.1,29.1,"09:13:44",1
"20/08/30","09:30",0.0,32.9,67.8,1006.9,23.9,0.6,1.8,350.0,0.40,26.2,29.2,"09:29:20",1
"20/08/30","09:40",0.0,33.2,67.7,1006.9,322.3,0.7,1.9,349.5,0.43,26.5,29.6,"09:30:24",1
"20/08/30","09:50",0.0,33.5,66.6,1006.9,101.4,0.8,2.2,355.5,0.45,26.5,29.8,"09:47:04",1
"20/08/30","10:00",0.0,33.8,66.8,1007.4,201.4,0.8,2.1,211.7,0.46,26.8,29.9,"09:58:40",1
"20/08/30","10:10",0.0,33.5,65.5,1007.1,162.0,1.2,2.7,190.3,0.47,26.2,30.2,"10:08:32",1
"20/08/30","10:20",0.0,33.8,63.9,1007.4,179.1,1.3,3.2,197.9,0.49,26.0,30.5,"10:16:24",1
"20/08/30","10:30",0.0,33.9,64.2,1007.1,198.0,1.6,2.9,201.6,0.50,26.2,30.8,"10:24:56",1
"20/08/30","10:40",0.2,33.8,63.6,1006.4,185.1,1.8,3.9,191.9,0.51,26.0,30.7,"10:35:04",1
"20/08/30","10:50",0.0,34.7,63.1,1006.7,224.4,1.0,2.2,223.1,0.53,26.7,31.0,"10:41:44",1
"20/08/30","11:00",0.0,35.2,59.3,1007.1,137.2,1.1,2.7,114.5,0.55,26.1,31.4,"10:59:28",1
"20/08/30","11:10",0.0,35.2,59.2,1006.9,131.6,1.3,2.5,104.1,0.57,26.1,31.7,"11:04:56",1
"20/08/30","11:20",0.0,35.8,58.8,1007.1,203.7,0.7,2.2,177.6,0.59,26.5,32.1,"11:19:12",1
"20/08/30","11:30",0.0,36.0,58.0,1007.1,160.5,1.5,2.8,207.6,0.63,26.5,32.2,"11:22:48",1
"20/08/30","11:40",0.0,36.5,56.3,1007.4,167.5,1.2,2.6,211.3,0.64,26.4,32.5,"11:31:36",1
"20/08/30","11:50",0.0,35.8,56.2,1006.9,247.7,0.8,2.8,329.2,0.29,25.7,32.8,"11:47:44",1
"20/08/30","12:00",0.0,35.4,58.0,1006.2,257.9,1.1,2.7,225.5,0.41,25.9,32.9,"11:56:40",1
"20/08/30","12:10",0.0,34.6,58.9,1006.2,256.0,0.7,2.4,219.1,0.14,25.4,32.9,"12:00:32",1
"20/08/30","12:20",0.0,35.0,59.8,1005.5,271.8,0.6,2.1,192.7,0.27,26.1,33.0,"12:18:48",1
"20/08/30","12:30",0.0,35.0,58.1,1005.5,132.7,1.7,4.2,215.6,0.36,25.6,33.0,"12:20:56",1
"20/08/30","12:40",0.0,34.7,56.6,1005.5,104.4,1.6,2.9,41.9,0.29,24.8,32.8,"12:37:12",1
"20/08/30","12:50",0.0,32.4,61.1,1005.2,78.0,2.2,6.5,100.3,0.49,24.0,32.8,"12:45:44",1
"20/08/30","13:00",0.2,30.8,66.7,1004.3,80.1,1.6,3.4,90.5,0.22,23.9,32.7,"12:50:56",1
"20/08/30","13:10",0.0,29.8,73.8,1003.1,23.5,0.8,2.0,65.6,0.19,24.7,32.3,"13:00:32",1
"20/08/30","13:20",0.0,30.4,75.9,1002.9,335.0,1.6,2.9,337.6,0.65,25.7,32.9,"13:12:00",1
"20/08/30","13:30",0.0,33.2,68.6,1003.4,357.7,1.0,2.7,346.7,0.62,26.7,32.8,"13:20:24",1
"20/08/30","13:40",0.0,35.1,61.0,1004.3,11.8,1.0,2.5,354.0,0.58,26.5,33.0,"13:38:56",1
"20/08/30","13:50",0.0,36.1,55.1,1004.5,238.8,0.6,1.8,356.3,0.54,25.7,33.1,"13:40:24",1
"20/08/30","14:00",0.0,36.7,51.1,1004.8,124.1,0.8,1.8,127.3,0.51,25.0,33.5,"13:56:08",1
"20/08/30","14:10",0.0,36.6,53.6,1004.8,59.9,1.3,2.4,38.4,0.47,25.7,33.5,"14:02:16",1
"20/08/30","14:20",0.0,36.2,54.4,1004.8,83.7,1.3,2.6,119.7,0.44,25.6,33.7,"14:10:16",1
"20/08/30","14:30",0.0,37.0,52.8,1004.5,51.0,1.0,2.2,33.8,0.43,25.8,33.7,"14:25:04",1
"20/08/30","14:40",0.0,36.8,50.7,1004.3,106.4,1.3,2.8,115.4,0.42,24.9,33.8,"14:34:48",1
"20/08/30","14:50",0.0,36.7,50.9,1004.5,104.1,1.2,2.5,125.8,0.41,24.9,33.9,"14:43:44",1
"20/08/30","15:00",0.0,37.0,49.3,1004.5,99.3,1.0,2.6,109.6,0.39,24.7,33.9,"14:57:12",1
"20/08/30","15:10",0.0,37.4,48.5,1004.3,73.2,0.8,2.2,53.5,0.38,24.7,34.2,"15:06:16",1
"20/08/30","15:20",0.0,37.2,49.7,1005.0,56.6,1.0,2.5,75.7,0.26,25.0,33.9,"15:13:28",1
"20/08/30","15:30",0.0,35.2,54.1,1004.1,72.5,1.6,3.2,40.6,0.08,24.6,34.0,"15:24:08",1
"20/08/30","15:40",0.0,34.9,55.4,1003.8,78.4,1.1,2.5,54.2,0.13,24.7,33.7,"15:30:56",1
"20/08/30","15:50",0.0,36.0,51.5,1003.6,102.4,1.2,2.7,114.2,0.32,24.5,33.7,"15:47:28",1
"20/08/30","16:00",0.0,35.8,51.9,1003.6,107.5,2.0,4.3,115.0,0.26,24.4,33.5,"15:58:08",1
"20/08/30","16:10",0.0,35.7,52.6,1003.1,103.8,1.8,3.7,116.9,0.26,24.5,33.5,"16:00:40",1
"20/08/30","16:20",0.0,35.7,52.1,1003.1,92.9,1.6,3.7,110.4,0.20,24.4,33.4,"16:19:28",1
"20/08/30","16:30",0.0,35.6,52.9,1003.1,90.6,1.3,2.6,93.3,0.18,24.5,33.3,"16:24:32",1
"20/08/30","16:40",0.0,35.5,47.7,1003.1,43.8,1.2,2.5,330.8,0.15,22.7,33.2,"16:39:44",1
"20/08/30","16:50",0.0,35.4,45.0,1003.1,7.4,1.7,3.7,23.8,0.12,21.7,32.9,"16:43:20",1
"20/08/30","17:00",0.0,35.0,44.9,1002.9,16.6,1.6,4.3,42.0,0.10,21.3,33.0,"16:53:20",1
"20/08/30","17:10",0.0,34.9,45.8,1002.9,11.2,1.3,3.4,358.9,0.08,21.5,32.6,"17:02:56",1
"20/08/30","17:20",0.0,34.3,46.4,1002.6,359.0,1.6,3.2,5.9,0.06,21.2,32.5,"17:12:16",1
"20/08/30","17:30",0.0,33.9,48.5,1002.9,352.5,1.5,3.2,339.0,0.04,21.6,32.3,"17:28:16",1
"20/08/30","17:40",0.0,33.3,51.0,1002.9,345.0,1.6,3.1,350.6,0.03,21.8,32.1,"17:36:00",1
"20/08/30","17:50",0.0,32.6,52.0,1002.6,349.0,1.6,3.2,334.5,0.01,21.5,31.9,"17:44:40",1
"20/08/30","18:00",0.0,31.9,53.5,1002.4,346.2,1.7,3.9,352.3,0.00,21.3,31.8,"17:55:36",1
"20/08/30","18:10",0.0,31.7,54.0,1002.6,344.1,2.0,4.1,351.9,0.00,21.3,31.4,"18:01:52",1
"20/08/30","18:20",0.0,31.4,54.1,1002.4,335.6,2.3,4.3,358.0,0.00,21.0,31.4,"18:12:48",1
"20/08/30","18:30",0.0,31.2,55.0,1002.2,346.4,1.8,3.9,336.1,0.00,21.1,31.3,"18:27:44",1
"20/08/30","18:40",0.0,30.8,55.2,1001.9,1.5,1.0,2.7,357.7,0.00,20.8,31.2,"18:34:48",1
"20/08/30","18:50",0.0,30.4,56.1,1002.2,294.7,0.3,1.8,31.9,0.00,20.7,31.1,"18:41:04",1
"20/08/30","19:00",0.0,30.0,56.7,1002.2,193.1,0.6,1.4,300.5,0.00,20.5,30.8,"18:59:12",1
"20/08/30","19:10",0.0,30.1,57.2,1002.4,304.1,0.7,2.4,306.6,0.00,20.7,30.7,"19:00:16",1
"20/08/30","19:20",0.0,30.1,57.4,1002.6,62.8,0.8,1.8,117.3,0.00,20.8,30.7,"19:15:20",1
"20/08/30","19:30",0.0,30.1,57.9,1002.6,62.5,0.7,1.6,71.5,0.00,20.9,30.4,"19:28:00",1
"20/08/30","19:40",0.0,29.3,61.5,1003.1,318.2,0.8,1.8,318.6,0.00,21.2,30.3,"19:32:24",1
"20/08/30","19:50",0.0,28.7,63.6,1003.1,326.3,0.5,1.2,1.9,0.00,21.2,30.3,"19:47:20",1
"20/08/30","20:00",0.0,28.2,65.6,1003.4,296.5,0.6,1.7,311.8,0.00,21.2,30.2,"19:56:16",1
"20/08/30","20:10",0.0,28.0,67.0,1003.6,318.6,0.8,1.6,342.7,0.00,21.3,29.8,"20:08:56",1
"20/08/30","20:20",0.0,27.6,68.6,1004.1,332.4,1.0,1.6,331.0,0.00,21.3,29.9,"20:18:16",1
"20/08/30","20:30",0.0,27.2,70.5,1004.1,305.3,0.7,1.8,325.9,0.00,21.4,29.7,"20:29:36",1
"20/08/30","20:40",0.0,27.3,71.2,1004.1,337.4,1.5,2.5,338.2,0.00,21.7,29.5,"20:38:40",1
"20/08/30","20:50",0.0,27.5,70.7,1004.3,334.7,1.7,3.4,346.9,0.00,21.7,29.6,"20:48:24",1
"20/08/30","21:00",0.0,27.5,70.8,1005.0,340.7,1.7,2.9,348.0,0.00,21.8,29.4,"20:50:24",1
"20/08/30","21:10",0.0,27.4,71.2,1004.5,334.7,2.2,3.6,350.7,0.00,21.8,29.5,"21:04:16",1
"20/08/30","21:20",0.0,27.3,71.5,1004.3,331.0,1.5,2.7,336.7,0.00,21.7,29.3,"21:10:08",1
"20/08/30","21:30",0.0,27.1,71.9,1004.3,318.4,1.2,2.8,338.2,0.00,21.6,29.1,"21:29:04",1
"20/08/30","21:40",0.0,27.0,72.6,1004.3,324.2,1.5,3.4,319.9,0.00,21.7,29.2,"21:38:48",1
"20/08/30","21:50",0.0,26.8,72.9,1004.3,283.6,1.0,1.8,290.4,0.00,21.6,28.9,"21:41:36",1
"20/08/30","22:00",0.0,26.9,73.0,1004.3,242.2,1.0,1.7,235.5,0.00,21.7,29.0,"21:52:08",1
"20/08/30","22:10",0.0,26.8,72.5,1004.3,288.7,1.1,4.4,353.3,0.00,21.5,28.8,"22:09:20",1
"20/08/30","22:20",0.0,26.9,72.2,1004.1,286.4,1.2,2.6,327.4,0.00,21.5,28.7,"22:11:36",1
"20/08/30","22:30",0.0,26.8,72.5,1004.5,253.7,1.0,1.8,231.4,0.00,21.5,28.5,"22:25:20",1
"20/08/30","22:40",0.0,26.6,72.9,1004.8,283.2,1.0,1.6,240.3,0.00,21.4,28.5,"22:31:20",1
"20/08/30","22:50",0.0,26.3,73.3,1004.5,295.6,0.8,1.4,307.6,0.00,21.2,28.7,"22:43:28",1
"20/08/30","23:00",0.0,26.1,73.8,1004.3,285.2,0.8,2.4,232.2,0.00,21.1,28.3,"22:51:12",1
"20/08/30","23:10",0.0,26.1,74.4,1004.5,321.1,1.5,2.7,348.1,0.00,21.2,28.3,"23:08:48",1
"20/08/30","23:20",0.0,26.0,75.3,1004.5,338.1,1.5,2.8,4.4,0.00,21.3,28.2,"23:17:20",1
"20/08/30","23:30",0.0,25.9,75.8,1004.5,350.4,1.6,3.4,353.5,0.00,21.3,28.2,"23:27:04",1
"20/08/30","23:40",0.0,25.8,76.1,1004.3,341.5,1.5,3.7,341.8,0.00,21.3,28.0,"23:38:56",1
"20/08/30","23:50",0.0,26.0,75.4,1004.3,332.8,2.1,4.2,348.6,0.00,21.4,27.9,"23:47:36",1
"20/08/30","24:00",0.0,25.9,75.1,1004.1,325.9,1.1,2.2,329.2,0.00,21.2,27.8,"23:58:56",1
